Flag for Turkey Weather past 2 weeks in Gelibolu, Turkey

Now
74 °F

Clear.


Feels Like: 74 °F
Forecast: 73 / 91 °F
Wind: 2 mph from Northeast

Location: Canakkale

Current Time: Jul 31, 2014 at 8:32:24 AM

Latest Report: Jul 31, 2014 at 6:00 AM


Visibility: 13 mi

Pressure: 29.77 "Hg

Humidity: 79%

Dew point: 67 °F

Location of GeliboluLocation

Historic Weather in Gelibolu — Graph

°F

Gelibolu temperature yesterday

Maximum temperature yesterday: 89 °F (at 5:00 PM)
Minimum temperature yesterday: 75 °F (at 6:00 AM)
Average temperature yesterday: 84 °F

Past Weeks' High & Low Weather Summary

 TemperatureHumidityPressure
High92 °F (Jul 29, 6:00 PM)89% (Jul 24, 9:00 AM)29.92 "Hg (Jul 24, 9:00 AM)
Low66 °F (Jul 24, 9:00 AM)20% (Jul 20, 4:00 PM)29.68 "Hg (Jul 23, 6:00 PM)
Average81 °F59%29.83 "Hg
* Reported Jul 16 6:00 AM — Jul 31 6:00 AM, Gelibolu, Weather by CustomWeather, © 2014

Note: Actual official high and low records may vary slightly from our data, if they occured in-between our weather recording intervals... More about our weather records

Advertising

Gelibolu weather history for previous 24 hours

 ConditionsComfort  
Time TempWeatherWind HumidityBarometerVisibility
6:00 AM
Jul 31
74 °FClear.2 mph79%29.77 "Hg12 mi
3:00 AM75 °FClear.3 mph78%29.80 "Hg12 mi
12:00 AM80 °FClear.3 mph60%29.83 "Hg12 mi
9:00 PM
Jul 30
83 °FClear.3 mph64%29.81 "Hg12 mi
8:00 PM86 °FSunny.7 mph54%29.79 "Hg12 mi
7:00 PM88 °FSunny.8 mph47%29.79 "Hg12 mi
6:00 PM89 °FPassing clouds.9 mph45%29.80 "Hg12 mi
5:00 PM89 °FPassing clouds.10 mph43%29.82 "Hg12 mi
4:00 PM88 °FPassing clouds.14 mph43%29.83 "Hg12 mi
3:00 PM87 °FPassing clouds.15 mph41%29.83 "Hg12 mi
2:00 PM86 °FPassing clouds.16 mph41%29.83 "Hg12 mi
1:00 PM85 °FPassing clouds.13 mph46%29.85 "Hg12 mi
12:00 PM85 °FPassing clouds.12 mph47%29.85 "Hg12 mi
11:00 AM82 °FSunny.10 mph64%29.85 "Hg12 mi
10:00 AM81 °FSunny.9 mph70%29.85 "Hg12 mi
9:00 AM79 °FSunny.9 mph75%29.84 "Hg12 mi
Weather by CustomWeather, © 2014

See weather overviewHow to use our weather pages